sat.trackr.live / text

‹ back to catalog

BADR-4

NORAD 29526 · 2006-051A

PAYLOAD ACTIVE UNKNOWN

§ Identity

Operator
Country
AB
Launch date
2006-11-08
Launch site
TYMSC
Launch vehicle
Mass (kg)
RCS (m²)
0.00

Purposes: comms

External: N2YO · Heavens-Above · Gunter

§ Orbital elements

Epoch: 2026-09-19T20:33:23.190624Z

Period
1,436.07 min
Inclination
2.2420°
Eccentricity
0.0004882
Mean motion
1.00273899 rev/d
Perigee alt
35,765.4 km
Apogee alt
35,806.6 km
Semi-major
42,164.1 km
B*
0.0000e+0
RAAN
79.9595°
Arg perigee
97.6037°
Mean anomaly
164.0364°
Rev number
5,221

§ Raw data

BADR-41 29526U 06051A   26262.85651841  .00000152  00000+0  00000+0 0  99982 29526   2.2420  79.9595 0004882  97.6037 164.0364  1.00273899 52217

JSON: /api/v1/satellites/29526 · /tle

For live sub-satellite position, see the globe view (requires WebGL).

§ Visibility from observer

Set your observer location to see the next 7 days of passes ≥ 10°. The values pass through the URL so the page stays shareable.

No JS? Fill the form by hand. The geolocation button needs JavaScript.